CW8198 Weather Reports


time (UTC)temp
C
wind
direction
speed
KPH
gust
KPH
rain 1hr
cm
rain 24hr
cm
rain mn
cm
humidity
%
barometer
mb
20260905200055 32 133 12.9 25.7 0.00 0.00 0.00 58 1014.0
20260905195555 32 137 9.7 25.7 0.00 0.00 0.00 58 1014.2
20260905194554 32 128 9.7 17.7 0.00 0.00 0.00 58 1014.5
20260905194055 32 51 6.4 19.3 0.00 0.00 0.00 58 1014.7
20260905193554 32 123 9.7 19.3 0.00 0.00 0.00 59 1014.6
20260905193054 31 133 11.3 20.9 0.00 0.00 0.00 58 1014.7
20260905192554 31 38 9.7 20.9 0.00 0.00 0.00 56 1014.6
20260905192053 31 98 9.7 20.9 0.00 0.00 0.00 58 1014.5
20260905191554 31 110 9.7 19.3 0.00 0.00 0.00 59 1014.6
20260905191054 31 93 11.3 22.5 0.00 0.00 0.00 57 1014.7
20260905190553 31 80 9.7 25.7 0.00 0.00 0.00 58 1014.8
20260905190053 31 92 17.7 25.7 0.00 0.00 0.00 58 1014.9
20260905185553 31 131 4.8 24.1 0.00 0.00 0.00 63 1015.1
20260905185051 31 123 11.3 24.1 0.00 0.00 0.00 62 1015.3
20260905184551 31 124 14.5 24.1 0.00 0.00 0.00 63 1015.6
20260905183548 31 51 9.7 25.7 0.00 0.00 0.00 64 1015.6
20260905183048 31 27 9.7 22.5 0.00 0.00 0.00 66 1015.8
20260905182549 31 160 6.4 24.1 0.00 0.00 0.00 69 1015.8
20260905182049 31 117 14.5 33.8 0.00 0.00 0.00 67 1015.7
20260905181549 31 129 9.7 33.8 0.00 0.00 0.00 67 1015.8
20260905181048 31 341 8.0 20.9 0.00 0.00 0.00 66 1016.0
20260905180548 31 21 11.3 25.7 0.00 0.00 0.00 67 1016.0
20260905180049 31 142 8.0 25.7 0.00 0.00 0.00 68 1015.9
20260905175548 31 105 8.0 24.1 0.00 0.00 0.00 70 1015.9
20260905175048 30 344 9.7 24.1 0.00 0.00 0.00 69 1015.8
20260905174548 30 15 6.4 19.3 0.00 0.00 0.00 70 1015.8
20260905174049 30 110 9.7 19.3 0.00 0.00 0.00 72 1015.8
20260905173547 30 123 8.0 29.0 0.00 0.00 0.00 72 1015.9
20260905173047 30 347 9.7 29.0 0.00 0.00 0.00 70 1015.8
20260905172547 30 319 11.3 25.7 0.00 0.00 0.00 70 1015.8
20260905172047 30 34 8.0 27.4 0.00 0.00 0.00 71 1016.0
20260905171546 30 23 8.0 27.4 0.00 0.00 0.00 70 1016.0
20260905171046 30 80 6.4 19.3 0.00 0.00 0.00 71 1015.9
20260905170546 30 109 6.4 19.3 0.00 0.00 0.00 70 1016.1
20260905170046 30 13 3.2 22.5 0.00 0.00 0.00 73 1015.9
20260905165546 30 26 11.3 22.5 0.00 0.00 0.00 71 1015.9
20260905165046 30 9 12.9 20.9 0.00 0.00 0.00 69 1016.1
20260905163545 30 24 6.4 17.7 0.00 0.00 0.00 70 1016.1
20260905163045 30 334 6.4 17.7 0.00 0.00 0.00 70 1016.1
20260905162545 30 48 6.4 22.5 0.00 0.00 0.00 73 1016.2
20260905162045 30 11 11.3 22.5 0.00 0.00 0.00 72 1016.1
20260905161544 30 36 6.4 17.7 0.00 0.00 0.00 71 1016.1
20260905161045 31 316 4.8 27.4 0.00 0.00 0.00 73 1016.1
20260905160545 31 13 16.1 27.4 0.00 0.00 0.00 72 1016.2
20260905160044 31 334 8.0 14.5 0.00 0.00 0.00 70 1015.9
20260905154545 31 46 6.4 9.7 0.00 0.00 0.00 69 1015.5
20260905153543 31 34 4.8 14.5 0.00 0.00 0.00 70 1015.5
20260905153044 31 319 6.4 14.5 0.00 0.00 0.00 72 1015.6
20260905152543 30 344 6.4 11.3 0.00 0.00 0.00 73 1015.5
20260905152043 30 13 4.8 8.0 0.00 0.00 0.00 71 1015.5
20260905151543 30 44 1.6 4.8 0.00 0.00 0.00 74 1015.3
20260905151043 30 340 1.6 4.8 0.00 0.00 0.00 72 1015.2
20260905150543 30 34 3.2 4.8 0.00 0.00 0.00 70 1015.0
20260905150042 30 123 1.6 4.8 0.00 0.00 0.00 69 1015.0
20260905145542 29 9 1.6 4.8 0.00 0.00 0.00 70 1015.0
20260905145042 29 265 0.0 3.2 0.00 0.00 0.00 70 1014.9
20260905144543 29 178 1.6 4.8 0.00 0.00 0.00 71 1014.8
20260905144041 29 137 0.0 6.4 0.00 0.00 0.00 73 1014.7
20260905143041 29 346 3.2 4.8 0.00 0.00 0.00 71 1014.7
20260905142540 29 9 0.0 6.4 0.00 0.00 0.00 73 1014.5
20260905141535 28 178 3.2 8.0 0.00 0.00 0.00 74 1014.2
20260905140536 27 129 3.2 8.0 0.00 0.00 0.00 81 1014.4
20260905140035 26 76 4.8 8.0 0.00 0.00 0.00 84 1014.1
20260905135535 26 193 3.2 9.7 0.00 0.00 0.00 86 1013.8
20260905135034 25 164 3.2 9.7 0.00 0.00 0.00 88 1013.8
20260905134536 25 131 3.2 6.4 0.00 0.00 0.00 89 1013.9
20260905134034 25 178 3.2 4.8 0.00 0.00 0.00 89 1013.9
20260905133534 25 178 3.2 4.8 0.00 0.00 0.00 90 1014.2
20260905133034 24 205 1.6 3.2 0.00 0.00 0.00 90 1014.2
20260905132533 23 239 0.0 3.2 0.00 0.00 0.00 90 1014.3
20260905132033 23 265 0.0 3.2 0.00 0.00 0.00 90 1014.2
20260905131022 22 9 1.6 3.2 0.00 0.00 0.00 90 1013.8
20260905130521 22 309 0.0 3.2 0.00 0.00 0.00 90 1013.7
20260905130021 22 212 1.6 3.2 0.00 0.00 0.00 90 1013.7
20260905125520 22 221 1.6 1.6 0.00 0.00 0.00 90 1013.7
20260905124520 22 9 0.0 1.6 0.00 0.00 0.00 90 1013.6
20260905124020 22 265 0.0 1.6 0.00 0.00 0.00 90 1013.4
20260905123520 22 221 0.0 1.6 0.00 0.00 0.00 89 1013.4
20260905123021 22 221 0.0 1.6 0.00 0.00 0.00 89 1013.3
20260905122019 22 205 0.0 3.2 0.00 0.00 0.00 89 1013.1
20260905121514 22 51 1.6 3.2 0.00 0.00 0.00 89 1013.0
20260905121013 22 221 0.0 3.2 0.00 0.00 0.00 89 1012.8
20260905120003 22 34 0.0 3.2 0.00 0.00 0.00 89 1012.7
20260905114958 22 153 1.6 3.2 0.00 0.00 0.00 90 1012.4
20260905114458 22 212 1.6 3.2 0.00 0.00 0.00 90 1012.4
20260905113958 22 178 1.6 3.2 0.00 0.00 0.00 90 1012.7
20260905113500 22 51 0.0 3.2 0.00 0.00 0.00 90 1012.7
20260905112950 22 93 0.0 1.6 0.00 0.00 0.00 90 1012.8
20260905111947 22 108 0.0 3.2 0.00 0.00 0.00 90 1012.7
20260905111447 22 93 0.0 3.2 0.00 0.00 0.00 90 1012.7
20260905110948 22 146 0.0 3.2 0.00 0.00 0.00 90 1012.6
20260905110447 22 111 0.0 3.2 0.00 0.00 0.00 90 1012.6
20260905105947 22 108 1.6 3.2 0.00 0.00 0.00 90 1012.5
20260905105447 22 146 1.6 4.8 0.00 0.00 0.00 90 1012.4
20260905104947 22 188 1.6 4.8 0.00 0.00 0.00 90 1012.4
20260905104447 22 178 1.6 3.2 0.00 0.00 0.00 90 1012.4
20260905103447 22 178 1.6 3.2 0.00 0.00 0.00 90 1012.5
20260905102946 22 196 1.6 3.2 0.00 0.00 0.00 90 1012.5
20260905102447 22 93 1.6 3.2 0.00 0.00 0.00 90 1012.4
20260905101936 22 178 0.0 3.2 0.00 0.00 0.00 90 1012.4
20260905100935 22 137 1.6 4.8 0.00 0.00 0.00 90 1012.4
20260905100437 22 106 1.6 3.2 0.00 0.00 0.00 90 1012.4
20260905095934 22 196 1.6 3.2 0.00 0.00 0.00 90 1012.3
20260905094935 22 108 0.0 3.2 0.00 0.00 0.00 90 1012.2
20260905094435 22 137 1.6 3.2 0.00 0.00 0.00 90 1012.1
20260905093935 22 126 0.0 3.2 0.00 0.00 0.00 90 1012.2
20260905092935 23 93 1.6 3.2 0.00 0.00 0.00 90 1012.1
20260905092434 22 119 0.0 3.2 0.00 0.00 0.00 90 1012.1
20260905091936 22 9 0.0 3.2 0.00 0.00 0.00 90 1012.1
20260905091434 22 9 0.0 3.2 0.00 0.00 0.00 90 1012.1
20260905090934 22 137 0.0 3.2 0.00 0.00 0.00 90 1012.1
20260905090434 22 119 0.0 1.6 0.00 0.00 0.00 90 1012.1
20260905085934 22 34 0.0 1.6 0.00 0.00 0.00 90 1012.2
20260905085424 22 93 0.0 1.6 0.00 0.00 0.00 90 1012.3
20260905084923 22 51 0.0 1.6 0.00 0.00 0.00 90 1012.2
20260905084425 22 221 0.0 3.2 0.00 0.00 0.00 90 1012.4
20260905083919 23 196 0.0 1.6 0.00 0.00 0.00 90 1012.5
20260905083418 23 221 0.0 1.6 0.00 0.00 0.00 90 1012.5
20260905082918 23 178 0.0 1.6 0.00 0.00 0.00 90 1012.5
20260905082417 23 137 0.0 1.6 0.00 0.00 0.00 90 1012.5
20260905081918 23 51 0.0 1.6 0.00 0.00 0.00 90 1012.5
20260905081418 23 51 0.0 1.6 0.00 0.00 0.00 90 1012.6
20260905080917 23 51 0.0 1.6 0.00 0.00 0.00 90 1012.6
20260905080418 23 51 0.0 3.2 0.00 0.00 0.00 90 1012.7
20260905075419 23 178 1.6 3.2 0.00 0.00 0.00 90 1012.7
20260905074917 23 193 1.6 1.6 0.00 0.00 0.00 89 1012.8
20260905074417 23 178 0.0 3.2 0.00 0.00 0.00 90 1012.8
20260905073917 23 178 0.0 3.2 0.00 0.00 0.00 90 1012.8
20260905073417 23 51 0.0 1.6 0.00 0.00 0.00 89 1012.9
20260905072913 23 221 0.0 1.6 0.00 0.00 0.00 89 1013.0
20260905072412 23 205 0.0 1.6 0.00 0.00 0.00 89 1013.0
20260905071912 24 221 0.0 1.6 0.00 0.00 0.00 89 1013.0
20260905071407 24 93 0.0 3.2 0.00 0.00 0.00 90 1013.0
20260905070907 24 212 0.0 3.2 0.00 0.00 0.00 90 1013.0
20260905070407 24 30 0.0 3.2 0.00 0.00 0.00 89 1013.0
20260905065909 24 178 0.0 1.6 0.00 0.00 0.00 89 1013.1
20260905065407 24 221 0.0 1.6 0.00 0.00 0.00 89 1013.0
20260905064907 24 221 0.0 3.2 0.00 0.00 0.00 89 1013.1
20260905064407 24 178 1.6 3.2 0.00 0.00 0.00 89 1013.1
20260905063906 24 190 1.6 3.2 0.00 0.00 0.00 89 1013.3
20260905063406 24 217 0.0 3.2 0.00 0.00 0.00 89 1013.1
20260905062907 24 298 0.0 3.2 0.00 0.00 0.00 89 1013.3
20260905062406 24 247 1.6 3.2 0.00 0.00 0.00 89 1013.3
20260905061906 25 51 0.0 3.2 0.00 0.00 0.00 89 1013.3
20260905060906 25 265 0.0 1.6 0.00 0.00 0.00 89 1013.3
20260905055908 25 9 0.0 1.6 0.00 0.00 0.00 89 1013.3
20260905055400 25 265 0.0 1.6 0.00 0.00 0.00 88 1013.3
20260905054355 25 137 1.6 3.2 0.00 0.00 0.00 89 1013.3
20260905053856 25 51 0.0 3.2 0.00 0.00 0.00 89 1013.1
20260905053355 25 26 1.6 3.2 0.00 0.00 0.00 88 1013.1
20260905052855 25 309 0.0 1.6 0.00 0.00 0.00 88 1013.1
20260905052354 25 309 0.0 1.6 0.00 0.00 0.00 88 1013.0
20260905051855 25 119 0.0 3.2 0.00 0.00 0.00 88 1013.0
20260905051355 25 137 0.0 3.2 0.00 0.00 0.00 88 1013.0
20260905050855 25 178 0.0 1.6 0.00 0.00 0.00 88 1013.0
20260905045854 25 221 0.0 1.6 0.00 0.00 0.00 87 1013.0
20260905045355 26 221 0.0 1.6 0.00 0.00 0.00 87 1013.0
20260905044848 26 137 1.6 1.6 0.00 0.00 0.00 87 1012.9
20260905044348 26 153 0.0 1.6 0.00 0.00 0.00 87 1012.8
20260905043344 26 221 0.0 3.2 0.00 0.00 0.00 87 1012.8
20260905042843 26 196 1.6 1.6 0.00 0.00 0.00 87 1012.8
20260905042343 26 51 1.6 1.6 0.00 0.00 0.00 87 1012.7
20260905041843 26 232 0.0 1.6 0.00 0.00 0.00 87 1012.7
20260905041343 26 265 0.0 1.6 0.00 0.00 0.00 86 1012.7
20260905040844 26 221 0.0 1.6 0.00 0.00 0.00 87 1012.6
20260905040332 26 221 0.0 1.6 0.00 0.00 0.00 86 1012.6
20260905035832 26 178 0.0 3.2 0.00 0.00 0.00 86 1012.6
20260905035332 26 212 1.6 3.2 0.00 0.00 0.00 86 1012.5
20260905034831 27 221 0.0 1.6 0.00 0.00 0.00 86 1012.5
20260905034332 27 93 0.0 1.6 0.00 0.00 0.00 86 1012.6
20260905033832 27 178 0.0 1.6 0.00 0.00 0.00 86 1012.5
20260905033326 27 51 0.0 3.2 0.00 0.00 0.00 85 1012.5
20260905032311 27 238 1.6 3.2 0.00 0.00 0.00 85 1012.5
20260905031812 27 221 0.0 3.2 0.00 0.00 0.00 84 1012.5
20260905031310 27 229 3.2 3.2 0.00 0.00 0.00 84 1012.4
20260905025810 27 9 1.6 3.2 0.00 0.00 0.00 83 1012.3
20260905025309 27 325 0.0 1.6 0.00 0.00 0.00 82 1012.2
20260905024810 27 178 0.0 1.6 0.00 0.00 0.00 82 1012.1
20260905024305 28 238 0.0 1.6 0.00 0.00 0.00 82 1012.2
20260905023805 28 309 0.0 3.2 0.00 0.00 0.00 81 1012.0
20260905022758 28 196 1.6 1.6 0.00 0.00 0.00 81 1012.0
20260905022259 28 51 0.0 1.6 0.00 0.00 0.00 80 1012.0
20260905021800 28 51 0.0 1.6 0.00 0.00 0.00 80 1012.0
20260905021259 28 178 0.0 1.6 0.00 0.00 0.00 80 1012.0
20260905020758 29 9 0.0 3.2 0.00 0.00 0.00 79 1012.0
20260905020258 29 137 1.6 3.2 0.00 0.00 0.00 78 1012.0
20260905015758 29 146 1.6 3.2 0.00 0.00 0.00 77 1011.9
20260905015258 30 212 1.6 3.2 0.00 0.00 0.00 76 1012.0
20260905013759 30 265 0.0 3.2 0.00 0.00 0.00 73 1011.6
20260905013253 30 51 0.0 3.2 0.00 0.00 0.00 72 1011.6
20260905012752 31 51 0.0 1.6 0.00 0.00 0.00 70 1011.6
20260905012252 31 51 0.0 3.2 0.00 0.00 0.00 70 1011.5
20260905011253 31 115 1.6 3.2 0.00 0.00 0.00 68 1011.5
20260905010752 31 119 0.0 3.2 0.00 0.00 0.00 67 1011.5
20260905010251 32 126 1.6 3.2 0.00 0.00 0.00 66 1011.4
20260905005751 32 153 1.6 3.2 0.00 0.00 0.00 66 1011.3
20260905004752 32 165 1.6 4.8 0.00 0.00 0.00 65 1011.3
20260905004253 32 153 1.6 4.8 0.00 0.00 0.00 64 1011.3
20260905003751 32 196 3.2 9.7 0.00 0.00 0.00 64 1011.4
20260905003251 32 134 4.8 9.7 0.00 0.00 0.00 62 1011.3
20260905002751 33 142 1.6 4.8 0.00 0.00 0.00 63 1011.3
20260905001750 33 178 1.6 3.2 0.00 0.00 0.00 61 1011.3
20260905001250 33 137 1.6 4.8 0.00 0.00 0.00 61 1011.2
20260905000749 33 137 3.2 4.8 0.00 0.00 0.00 60 1011.2
20260905000249 33 111 1.6 3.2 0.00 0.00 0.00 61 1011.3
20260904235749 33 178 1.6 3.2 0.00 0.00 0.00 62 1011.3
20260904234748 33 178 0.0 1.6 0.00 0.00 0.00 60 1011.3
20260904234246 33 178 0.0 3.2 0.00 0.00 0.00 62 1011.2
20260904233746 33 205 0.0 3.2 0.00 0.00 0.00 62 1011.3
20260904233246 33 221 1.6 3.2 0.00 0.00 0.00 58 1011.3
20260904232246 34 221 3.2 6.4 0.00 0.00 0.00 57 1011.4
20260904231746 34 221 1.6 8.0 0.00 0.00 0.00 57 1011.4
20260904231245 34 205 4.8 12.9 0.00 0.00 0.00 56 1011.5
20260904230745 35 238 6.4 12.9 0.00 0.00 0.00 55 1011.5
20260904230246 35 255 6.4 9.7 0.00 0.00 0.00 57 1011.5
20260904225745 35 257 4.8 9.7 0.00 0.00 0.00 56 1011.4
20260904225245 35 232 4.8 9.7 0.00 0.00 0.00 56 1011.4
20260904224744 35 245 3.2 11.3 0.00 0.00 0.00 61 1011.4
20260904223744 34 221 6.4 11.3 0.00 0.00 0.00 57 1011.5
20260904223244 34 205 4.8 11.3 0.00 0.00 0.00 61 1011.4
20260904222744 34 225 8.0 11.3 0.00 0.00 0.00 58 1011.4
20260904222243 34 238 4.8 14.5 0.00 0.00 0.00 57 1011.4
20260904221743 35 232 8.0 14.5 0.00 0.00 0.00 56 1011.4
20260904221243 35 207 6.4 16.1 0.00 0.00 0.00 55 1011.4
20260904220745 35 200 6.4 16.1 0.00 0.00 0.00 54 1011.4
20260904215742 35 254 9.7 14.5 0.00 0.00 0.00 56 1011.3
20260904215242 35 168 4.8 14.5 0.00 0.00 0.00 56 1011.3
20260904214742 35 208 6.4 16.1 0.00 0.00 0.00 54 1011.3
20260904214243 35 236 6.4 16.1 0.00 0.00 0.00 55 1011.4
20260904213742 35 212 6.4 14.5 0.00 0.00 0.00 53 1011.3
20260904213242 35 201 6.4 14.5 0.00 0.00 0.00 55 1011.4
20260904212241 35 209 9.7 19.3 0.00 0.00 0.00 55 1011.3
20260904211240 35 221 8.0 17.7 0.00 0.00 0.00 55 1011.3
20260904210239 35 140 6.4 16.1 0.00 0.00 0.00 53 1011.3
20260904205739 35 196 9.7 16.1 0.00 0.00 0.00 52 1011.4
20260904205239 35 146 8.0 16.1 0.00 0.00 0.00 54 1011.3
20260904204739 35 216 6.4 12.9 0.00 0.00 0.00 53 1011.3
20260904204239 35 238 6.4 12.9 0.00 0.00 0.00 54 1011.2
20260904203739 35 196 6.4 12.9 0.00 0.00 0.00 54 1011.3
20260904202738 35 178 4.8 14.5 0.00 0.00 0.00 55 1011.3
20260904202237 35 178 6.4 16.1 0.00 0.00 0.00 54 1011.4
20260904201738 35 212 9.7 16.1 0.00 0.00 0.00 54 1011.4
20260904201239 35 202 8.0 14.5 0.00 0.00 0.00 56 1011.4
20260904200738 34 221 8.0 16.1 0.00 0.00 0.00 58 1011.4